Location: Antin
(43.3330°N, 0.2804°E)
Time: 10:52:15
(UTC+00:00)

Feng Yun 1-1 Rocket - Pass Details

Date: 16 October 2021
Orbit: 830 x 933 km, 99.2° (Epoch: 03 December)

Event Time Altitude Azimuth Distance (km) Brightness Sun altitude
Rises 18:44:13 0° 169° (SSE) 3,382 7.2 -17.2°
Reaches altitude 10° 18:46:33 10° 171° (S) 2,461 6.5 -17.6°
Maximum altitude 18:52:01 75° 256° (WSW) 895 4.4 -18.6°
Drops below altitude 10° 18:57:39 10° 342° (NNW) 2,542 7.0 -19.6°
Sets 19:00:06 0° 344° (NNW) 3,501 7.7 -20.0°
